Time,TemperatureF,DewpointF,PressureIn,WindDirection,WindDirectionDegrees,WindSpeedMPH,WindSpeedGustMPH,Humidity,HourlyPrecipIn,Conditions,Clouds,dailyrainin,SoftwareType,DateUTC
2013-02-05 00:00:00,39.0,33.0,30.02,North,360,0.0,0.0,79,0.00,CLR,,0.00,WeatherDisplay:10.37,2013-02-05 05:00:00,
2013-02-05 00:05:00,38.9,32.9,30.02,North,360,0.0,0.0,79,0.00,CLR,,0.00,WeatherDisplay:10.37,2013-02-05 05:05:00,
2013-02-05 00:10:00,38.9,32.9,30.01,North,360,0.0,0.0,79,0.00,CLR,,0.00,WeatherDisplay:10.37,2013-02-05 05:10:00,
2013-02-05 00:15:00,38.9,32.9,30.01,North,360,0.0,0.0,79,0.00,CLR,,0.00,WeatherDisplay:10.37,2013-02-05 05:15:00,
2013-02-05 00:20:00,38.9,33.3,30.01,North,360,0.0,0.0,80,0.00,CLR,,0.00,WeatherDisplay:10.37,2013-02-05 05:20:00,
2013-02-05 00:25:00,38.9,33.3,30.00,North,360,0.0,0.0,80,0.00,CLR,,0.00,WeatherDisplay:10.37,2013-02-05 05:25:00,
2013-02-05 00:30:00,38.8,33.2,30.00,North,360,0.0,0.0,80,0.00,CLR,,0.00,WeatherDisplay:10.37,2013-02-05 05:30:00,
2013-02-05 00:35:00,38.8,33.2,30.00,North,360,0.0,0.0,80,0.00,CLR,,0.00,WeatherDisplay:10.37,2013-02-05 05:35:00,
2013-02-05 00:40:00,38.7,33.1,30.00,North,360,0.0,0.0,80,0.00,CLR,,0.00,WeatherDisplay:10.37,2013-02-05 05:40:00,
2013-02-05 00:45:00,38.6,33.0,30.00,North,360,0.0,0.0,80,0.00,CLR,,0.00,WeatherDisplay:10.37,2013-02-05 05:45:00,
2013-02-05 00:50:00,38.4,33.1,30.00,North,360,0.0,0.0,81,0.00,CLR,,0.00,WeatherDisplay:10.37,2013-02-05 05:50:00,
2013-02-05 00:55:00,38.1,32.8,30.00,North,360,0.0,0.0,81,0.00,CLR,,0.00,WeatherDisplay:10.37,2013-02-05 05:55:00,
2013-02-05 01:00:00,37.9,32.6,29.99,North,360,0.0,0.0,81,0.00,CLR,,0.00,WeatherDisplay:10.37,2013-02-05 06:00:00,
2013-02-05 01:05:00,37.8,32.5,30.00,North,360,0.0,0.0,81,0.00,CLR,,0.00,WeatherDisplay:10.37,2013-02-05 06:05:00,
2013-02-05 01:10:00,37.7,32.7,30.00,North,360,0.0,0.0,82,0.00,CLR,,0.00,WeatherDisplay:10.37,2013-02-05 06:10:00,
2013-02-05 01:15:00,37.6,32.6,30.00,North,360,0.0,0.0,82,0.00,CLR,,0.00,WeatherDisplay:10.37,2013-02-05 06:15:00,
2013-02-05 01:20:00,37.4,32.4,29.99,North,360,0.0,0.0,82,0.00,CLR,,0.00,WeatherDisplay:10.37,2013-02-05 06:20:00,
2013-02-05 01:25:00,37.3,32.3,30.00,North,360,0.0,0.0,82,0.00,CLR,,0.00,WeatherDisplay:10.37,2013-02-05 06:25:00,
2013-02-05 01:30:00,37.2,32.2,29.99,North,360,0.0,0.0,82,0.00,CLR,,0.00,WeatherDisplay:10.37,2013-02-05 06:30:00,
2013-02-05 01:35:00,37.1,32.1,29.99,North,360,0.0,0.0,82,0.00,CLR,,0.00,WeatherDisplay:10.37,2013-02-05 06:35:00,
2013-02-05 01:40:00,37.1,32.4,29.99,North,360,0.0,0.0,83,0.00,CLR,,0.00,WeatherDisplay:10.37,2013-02-05 06:40:00,
2013-02-05 01:45:00,37.1,32.4,29.99,North,360,0.0,0.0,83,0.00,CLR,,0.00,WeatherDisplay:10.37,2013-02-05 06:45:00,
2013-02-05 01:50:00,37.1,32.4,29.99,North,360,0.0,0.0,83,0.00,CLR,,0.00,WeatherDisplay:10.37,2013-02-05 06:50:00,
2013-02-05 01:55:00,37.0,32.3,29.99,North,360,0.0,0.0,83,0.00,CLR,,0.00,WeatherDisplay:10.37,2013-02-05 06:55:00,
2013-02-05 02:00:00,37.0,32.3,29.98,North,360,0.0,0.0,83,0.00,CLR,,0.00,WeatherDisplay:10.37,2013-02-05 07:00:00,
2013-02-05 02:05:00,37.0,32.3,29.98,North,360,0.0,0.0,83,0.00,CLR,,0.00,WeatherDisplay:10.37,2013-02-05 07:05:00,
2013-02-05 02:10:00,37.1,32.4,29.98,North,360,0.0,0.0,83,0.00,CLR,,0.00,WeatherDisplay:10.37,2013-02-05 07:10:00,
2013-02-05 02:15:00,37.0,32.3,29.98,North,360,0.0,0.0,83,0.00,CLR,,0.00,WeatherDisplay:10.37,2013-02-05 07:15:00,
2013-02-05 02:20:00,37.0,32.3,29.97,North,360,0.0,0.0,83,0.00,CLR,,0.00,WeatherDisplay:10.37,2013-02-05 07:20:00,
2013-02-05 02:25:00,36.8,32.2,29.97,North,360,0.0,0.0,83,0.00,CLR,,0.00,WeatherDisplay:10.37,2013-02-05 07:25:00,
2013-02-05 02:30:00,36.7,32.4,29.97,North,360,0.0,0.0,84,0.00,CLR,,0.00,WeatherDisplay:10.37,2013-02-05 07:30:00,
2013-02-05 02:35:00,36.7,32.3,29.97,North,360,0.0,0.0,84,0.00,CLR,,0.00,WeatherDisplay:10.37,2013-02-05 07:35:00,
2013-02-05 02:40:00,36.7,32.3,29.97,North,360,0.0,0.0,84,0.00,CLR,,0.00,WeatherDisplay:10.37,2013-02-05 07:40:00,
2013-02-05 02:45:00,36.6,32.2,29.97,North,360,0.0,0.0,84,0.00,CLR,,0.00,WeatherDisplay:10.37,2013-02-05 07:45:00,
2013-02-05 02:50:00,36.6,32.2,29.97,North,360,0.0,0.0,84,0.00,CLR,,0.00,WeatherDisplay:10.37,2013-02-05 07:50:00,
2013-02-05 02:55:00,36.5,32.1,29.97,North,360,0.0,0.0,84,0.00,CLR,,0.00,WeatherDisplay:10.37,2013-02-05 07:55:00,
2013-02-05 03:00:00,36.3,32.0,29.97,North,360,0.0,0.0,84,0.00,CLR,,0.00,WeatherDisplay:10.37,2013-02-05 08:00:00,
2013-02-05 03:05:00,36.2,31.8,29.97,North,360,0.0,0.0,84,0.00,CLR,,0.00,WeatherDisplay:10.37,2013-02-05 08:05:00,
2013-02-05 03:10:00,36.1,31.7,29.97,North,360,0.0,0.0,84,0.00,CLR,,0.00,WeatherDisplay:10.37,2013-02-05 08:10:00,
2013-02-05 03:15:00,35.9,31.5,29.97,North,360,0.0,0.0,84,0.00,CLR,,0.00,WeatherDisplay:10.37,2013-02-05 08:15:00,
2013-02-05 03:20:00,35.7,31.7,29.97,North,360,0.0,0.0,85,0.00,CLR,,0.00,WeatherDisplay:10.37,2013-02-05 08:20:00,
2013-02-05 03:25:00,35.6,31.5,29.97,North,360,0.0,0.0,85,0.00,CLR,,0.00,WeatherDisplay:10.37,2013-02-05 08:25:00,
2013-02-05 03:30:00,35.4,31.4,29.97,North,360,0.0,0.0,85,0.00,CLR,,0.00,WeatherDisplay:10.37,2013-02-05 08:30:00,
2013-02-05 03:35:00,35.3,31.2,29.97,North,360,0.0,0.0,85,0.00,CLR,,0.00,WeatherDisplay:10.37,2013-02-05 08:35:00,
2013-02-05 03:40:00,35.0,30.9,29.97,North,360,0.0,0.0,85,0.00,CLR,,0.00,WeatherDisplay:10.37,2013-02-05 08:40:00,
2013-02-05 03:45:00,34.8,30.8,29.98,North,360,0.0,0.0,85,0.00,CLR,,0.00,WeatherDisplay:10.37,2013-02-05 08:45:00,
2013-02-05 03:50:00,34.7,30.7,29.98,North,360,0.0,0.0,85,0.00,CLR,,0.00,WeatherDisplay:10.37,2013-02-05 08:50:00,
2013-02-05 03:55:00,34.4,30.6,29.97,North,360,0.0,0.0,86,0.00,CLR,,0.00,WeatherDisplay:10.37,2013-02-05 08:55:00,
2013-02-05 04:00:00,34.4,30.6,29.97,North,360,0.0,0.0,86,0.00,CLR,,0.00,WeatherDisplay:10.37,2013-02-05 09:00:00,
2013-02-05 04:05:00,34.3,30.5,29.98,North,360,0.0,0.0,86,0.00,CLR,,0.00,WeatherDisplay:10.37,2013-02-05 09:05:00,
2013-02-05 04:10:00,34.1,30.4,29.98,North,360,0.0,0.0,86,0.00,CLR,,0.00,WeatherDisplay:10.37,2013-02-05 09:10:00,
2013-02-05 04:15:00,34.0,30.2,29.98,North,360,0.0,0.0,86,0.00,CLR,,0.00,WeatherDisplay:10.37,2013-02-05 09:15:00,
2013-02-05 04:20:00,33.8,30.1,29.99,North,360,0.0,0.0,86,0.00,CLR,,0.00,WeatherDisplay:10.37,2013-02-05 09:20:00,
2013-02-05 04:25:00,33.6,30.1,29.99,North,360,0.0,0.0,87,0.00,CLR,,0.00,WeatherDisplay:10.37,2013-02-05 09:25:00,
2013-02-05 04:30:00,33.5,30.1,29.98,North,360,0.0,0.0,87,0.00,CLR,,0.00,WeatherDisplay:10.37,2013-02-05 09:30:00,
2013-02-05 04:35:00,33.5,30.0,29.98,North,360,0.0,0.0,87,0.00,CLR,,0.00,WeatherDisplay:10.37,2013-02-05 09:35:00,
2013-02-05 04:40:00,33.5,30.0,29.98,North,360,0.0,0.0,87,0.00,CLR,,0.00,WeatherDisplay:10.37,2013-02-05 09:40:00,
2013-02-05 04:45:00,33.4,29.9,29.97,North,360,0.0,0.0,87,0.00,CLR,,0.00,WeatherDisplay:10.37,2013-02-05 09:45:00,
2013-02-05 04:50:00,33.4,29.9,29.97,North,360,0.0,0.0,87,0.00,CLR,,0.00,WeatherDisplay:10.37,2013-02-05 09:50:00,
2013-02-05 04:55:00,33.4,30.2,29.97,North,360,0.0,0.0,88,0.00,CLR,,0.00,WeatherDisplay:10.37,2013-02-05 09:55:00,
2013-02-05 05:00:00,33.4,30.2,29.97,North,360,0.0,0.0,88,0.00,CLR,,0.00,WeatherDisplay:10.37,2013-02-05 10:00:00,
2013-02-05 05:05:00,33.4,30.3,29.97,North,360,0.0,0.0,88,0.00,CLR,,0.00,WeatherDisplay:10.37,2013-02-05 10:05:00,
2013-02-05 05:10:00,33.5,30.3,29.97,North,360,0.0,0.0,88,0.00,CLR,,0.00,WeatherDisplay:10.37,2013-02-05 10:10:00,
2013-02-05 05:15:00,33.5,30.3,29.96,North,360,0.0,0.0,88,0.00,CLR,,0.00,WeatherDisplay:10.37,2013-02-05 10:15:00,
2013-02-05 05:20:00,33.5,30.4,29.97,North,360,0.0,0.0,88,0.00,CLR,,0.00,WeatherDisplay:10.37,2013-02-05 10:20:00,
2013-02-05 05:25:00,33.6,30.4,29.97,North,360,0.0,0.0,88,0.00,CLR,,0.00,WeatherDisplay:10.37,2013-02-05 10:25:00,
2013-02-05 05:30:00,33.5,30.0,29.97,North,360,0.0,0.0,87,0.00,CLR,,0.00,WeatherDisplay:10.37,2013-02-05 10:30:00,
2013-02-05 05:35:00,33.3,29.8,29.97,North,360,0.0,0.0,87,0.00,CLR,,0.00,WeatherDisplay:10.37,2013-02-05 10:35:00,
2013-02-05 05:40:00,33.0,29.6,29.98,North,360,0.0,0.0,87,0.00,CLR,,0.00,WeatherDisplay:10.37,2013-02-05 10:40:00,
2013-02-05 05:45:00,32.9,29.4,29.97,North,360,0.0,0.0,87,0.00,CLR,,0.00,WeatherDisplay:10.37,2013-02-05 10:45:00,
2013-02-05 05:50:00,32.6,29.2,29.98,North,360,0.0,0.0,87,0.00,CLR,,0.00,WeatherDisplay:10.37,2013-02-05 10:50:00,
2013-02-05 05:55:00,32.5,29.0,29.98,North,360,0.0,0.0,87,0.00,CLR,,0.00,WeatherDisplay:10.37,2013-02-05 10:55:00,
2013-02-05 06:00:00,32.4,28.9,29.98,North,360,0.0,0.0,87,0.00,CLR,,0.00,WeatherDisplay:10.37,2013-02-05 11:00:00,
2013-02-05 06:05:00,32.3,29.1,29.98,North,360,0.0,0.0,88,0.00,CLR,,0.00,WeatherDisplay:10.37,2013-02-05 11:05:00,
2013-02-05 06:10:00,32.4,29.2,29.98,North,360,0.0,0.0,88,0.00,CLR,,0.00,WeatherDisplay:10.37,2013-02-05 11:10:00,
2013-02-05 06:15:00,32.5,29.3,29.98,North,360,0.0,0.0,88,0.00,CLR,,0.00,WeatherDisplay:10.37,2013-02-05 11:15:00,
2013-02-05 06:20:00,32.6,29.5,29.98,North,360,0.0,0.0,88,0.00,CLR,,0.00,WeatherDisplay:10.37,2013-02-05 11:20:00,
2013-02-05 06:26:00,32.9,29.7,29.98,North,360,0.0,0.0,88,0.00,CLR,,0.00,WeatherDisplay:10.37,2013-02-05 11:26:00,
2013-02-05 06:31:00,32.9,29.7,29.98,North,360,0.0,0.0,88,0.00,CLR,,0.00,WeatherDisplay:10.37,2013-02-05 11:31:00,
2013-02-05 06:36:00,33.0,29.8,29.99,North,360,0.0,0.0,88,0.00,CLR,,0.00,WeatherDisplay:10.37,2013-02-05 11:36:00,
2013-02-05 06:41:00,33.3,30.4,29.99,North,360,0.0,0.0,89,0.00,CLR,,0.00,WeatherDisplay:10.37,2013-02-05 11:41:00,
2013-02-05 06:46:00,33.5,30.6,29.99,North,360,0.0,0.0,89,0.00,CLR,,0.00,WeatherDisplay:10.37,2013-02-05 11:46:00,
2013-02-05 06:51:00,33.7,30.5,29.99,North,360,0.0,0.0,88,0.00,CLR,,0.00,WeatherDisplay:10.37,2013-02-05 11:51:00,
2013-02-05 06:56:00,33.8,30.6,30.00,North,360,0.0,0.0,88,0.00,CLR,,0.00,WeatherDisplay:10.37,2013-02-05 11:56:00,
2013-02-05 07:01:00,33.9,30.7,30.00,North,360,0.0,0.0,88,0.00,CLR,,0.00,WeatherDisplay:10.37,2013-02-05 12:01:00,
2013-02-05 07:06:00,33.8,30.6,30.00,North,360,0.0,0.0,88,0.00,CLR,,0.00,WeatherDisplay:10.37,2013-02-05 12:06:00,
2013-02-05 07:11:00,33.6,30.4,30.00,North,360,0.0,0.0,88,0.00,CLR,,0.00,WeatherDisplay:10.37,2013-02-05 12:11:00,
2013-02-05 07:16:00,33.5,30.3,30.01,North,360,0.0,0.0,88,0.00,CLR,,0.00,WeatherDisplay:10.37,2013-02-05 12:16:00,
2013-02-05 07:21:00,33.5,30.3,30.01,North,360,0.0,0.0,88,0.00,CLR,,0.00,WeatherDisplay:10.37,2013-02-05 12:21:00,
2013-02-05 07:26:00,33.4,30.2,30.01,North,360,0.0,0.0,88,0.00,CLR,,0.00,WeatherDisplay:10.37,2013-02-05 12:26:00,
2013-02-05 07:31:00,33.2,30.0,30.02,North,360,0.0,0.0,88,0.00,CLR,,0.00,WeatherDisplay:10.37,2013-02-05 12:31:00,
2013-02-05 07:36:00,33.2,30.0,30.02,North,360,0.0,0.0,88,0.00,CLR,,0.00,WeatherDisplay:10.37,2013-02-05 12:36:00,
2013-02-05 07:41:00,33.2,30.0,30.02,North,360,0.0,0.0,88,0.00,CLR,,0.00,WeatherDisplay:10.37,2013-02-05 12:41:00,
2013-02-05 07:46:00,33.4,30.2,30.02,North,360,0.0,0.0,88,0.00,CLR,,0.00,WeatherDisplay:10.37,2013-02-05 12:46:00,
2013-02-05 07:51:00,33.7,30.5,30.01,North,360,0.0,0.0,88,0.00,CLR,,0.00,WeatherDisplay:10.37,2013-02-05 12:51:00,
2013-02-05 07:56:00,34.2,31.0,30.02,North,360,0.0,0.0,88,0.00,CLR,,0.00,WeatherDisplay:10.37,2013-02-05 12:56:00,
2013-02-05 08:01:00,34.9,32.0,30.01,North,360,0.0,0.0,89,0.00,CLR,,0.00,WeatherDisplay:10.37,2013-02-05 13:01:00,
2013-02-05 08:06:00,35.6,32.4,30.01,North,360,0.0,0.0,88,0.00,CLR,,0.00,WeatherDisplay:10.37,2013-02-05 13:06:00,
2013-02-05 08:11:00,35.9,32.7,30.02,North,360,0.0,0.0,88,0.00,CLR,,0.00,WeatherDisplay:10.37,2013-02-05 13:11:00,
2013-02-05 08:16:00,36.5,33.3,30.02,North,360,0.0,0.0,88,0.00,CLR,,0.00,WeatherDisplay:10.37,2013-02-05 13:16:00,
2013-02-05 08:21:00,38.1,35.1,30.02,North,360,0.0,0.0,89,0.00,CLR,,0.00,WeatherDisplay:10.37,2013-02-05 13:21:00,
2013-02-05 08:26:00,39.3,36.0,30.01,North,360,0.0,0.0,88,0.00,CLR,,0.00,WeatherDisplay:10.37,2013-02-05 13:26:00,
2013-02-05 08:31:00,40.5,36.9,30.01,North,360,0.0,0.0,87,0.00,CLR,,0.00,WeatherDisplay:10.37,2013-02-05 13:31:00,
2013-02-05 08:36:00,41.7,37.5,30.01,North,360,0.0,0.0,85,0.00,CLR,,0.00,WeatherDisplay:10.37,2013-02-05 13:36:00,
2013-02-05 08:41:00,43.1,38.6,30.01,North,360,0.0,0.0,84,0.00,CLR,,0.00,WeatherDisplay:10.37,2013-02-05 13:41:00,
2013-02-05 08:46:00,45.0,39.5,30.01,North,360,0.0,0.0,81,0.00,CLR,,0.00,WeatherDisplay:10.37,2013-02-05 13:46:00,
2013-02-05 08:51:00,46.1,38.3,30.02,North,360,0.0,0.0,74,0.00,CLR,,0.00,WeatherDisplay:10.37,2013-02-05 13:51:00,
2013-02-05 08:56:00,45.9,37.0,30.02,North,360,0.0,0.0,71,0.00,CLR,,0.00,WeatherDisplay:10.37,2013-02-05 13:56:00,
2013-02-05 09:01:00,45.8,36.9,30.02,North,360,0.0,0.0,71,0.00,CLR,,0.00,WeatherDisplay:10.37,2013-02-05 14:01:00,
2013-02-05 09:06:00,46.1,37.6,30.02,North,360,0.0,0.0,72,0.00,CLR,,0.00,WeatherDisplay:10.37,2013-02-05 14:06:00,
2013-02-05 09:11:00,46.2,37.3,30.02,North,360,0.0,0.0,71,0.00,CLR,,0.00,WeatherDisplay:10.37,2013-02-05 14:11:00,
2013-02-05 09:16:00,46.5,37.6,30.02,North,360,0.0,0.0,71,0.00,CLR,,0.00,WeatherDisplay:10.37,2013-02-05 14:16:00,
2013-02-05 09:21:00,47.4,38.5,30.02,North,360,0.0,0.0,71,0.00,CLR,,0.00,WeatherDisplay:10.37,2013-02-05 14:21:00,
2013-02-05 09:26:00,49.1,39.4,30.02,North,360,0.0,0.0,69,0.00,CLR,,0.00,WeatherDisplay:10.37,2013-02-05 14:26:00,
2013-02-05 09:31:00,49.5,38.6,30.02,North,360,0.0,0.0,66,0.00,CLR,,0.00,WeatherDisplay:10.37,2013-02-05 14:31:00,
2013-02-05 09:36:00,49.5,38.2,30.02,North,360,0.0,0.0,65,0.00,CLR,,0.00,WeatherDisplay:10.37,2013-02-05 14:36:00,
2013-02-05 09:41:00,50.0,38.7,30.02,North,360,0.0,0.0,65,0.00,CLR,,0.00,WeatherDisplay:10.37,2013-02-05 14:41:00,
2013-02-05 09:46:00,50.7,39.0,30.02,North,360,0.0,0.0,64,0.00,CLR,,0.00,WeatherDisplay:10.37,2013-02-05 14:46:00,
2013-02-05 09:51:00,51.4,39.2,30.02,North,360,0.0,0.0,63,0.00,CLR,,0.00,WeatherDisplay:10.37,2013-02-05 14:51:00,
2013-02-05 09:56:00,52.2,39.6,30.03,North,360,0.0,0.0,62,0.00,CLR,,0.00,WeatherDisplay:10.37,2013-02-05 14:56:00,
2013-02-05 10:01:00,52.9,39.4,30.02,North,360,0.0,0.0,60,0.00,CLR,,0.00,WeatherDisplay:10.37,2013-02-05 15:01:00,
2013-02-05 10:06:00,53.8,39.8,30.02,North,360,0.0,0.0,59,0.00,CLR,,0.00,WeatherDisplay:10.37,2013-02-05 15:06:00,
2013-02-05 10:11:00,54.4,39.9,30.02,North,360,0.0,0.0,58,0.00,CLR,,0.00,WeatherDisplay:10.37,2013-02-05 15:11:00,
2013-02-05 10:16:00,54.8,40.3,30.02,North,360,0.0,0.0,58,0.00,CLR,,0.00,WeatherDisplay:10.37,2013-02-05 15:16:00,
2013-02-05 10:21:00,55.6,40.6,30.02,North,360,0.0,0.0,57,0.00,CLR,,0.00,WeatherDisplay:10.37,2013-02-05 15:21:00,
2013-02-05 10:26:00,56.4,40.9,30.02,North,360,6.0,6.0,56,0.00,CLR,,0.00,WeatherDisplay:10.37,2013-02-05 15:26:00,
2013-02-05 10:31:00,57.1,41.5,30.01,North,360,0.0,0.0,56,0.00,CLR,,0.00,WeatherDisplay:10.37,2013-02-05 15:31:00,
2013-02-05 10:36:00,57.6,42.0,30.01,North,360,0.0,0.0,56,0.00,CLR,,0.00,WeatherDisplay:10.37,2013-02-05 15:36:00,
2013-02-05 10:41:00,58.1,42.0,30.01,North,360,3.0,3.0,55,0.00,CLR,,0.00,WeatherDisplay:10.37,2013-02-05 15:41:00,
2013-02-05 10:46:00,58.7,42.6,30.02,North,360,6.9,6.9,55,0.00,CLR,,0.00,WeatherDisplay:10.37,2013-02-05 15:46:00,
2013-02-05 10:51:00,59.3,43.1,30.02,North,360,0.0,0.0,55,0.00,CLR,,0.00,WeatherDisplay:10.37,2013-02-05 15:51:00,
2013-02-05 10:56:00,59.8,43.6,30.02,North,360,0.0,0.0,55,0.00,CLR,,0.00,WeatherDisplay:10.37,2013-02-05 15:56:00,
2013-02-05 11:01:00,60.1,43.4,30.02,North,360,5.8,5.8,54,0.00,CLR,,0.00,WeatherDisplay:10.37,2013-02-05 16:01:00,
2013-02-05 11:06:00,59.7,43.5,30.02,North,360,6.9,6.9,55,0.00,CLR,,0.00,WeatherDisplay:10.37,2013-02-05 16:06:00,
2013-02-05 11:11:00,60.0,44.3,30.02,North,360,5.0,5.0,56,0.00,CLR,,0.00,WeatherDisplay:10.37,2013-02-05 16:11:00,
2013-02-05 11:16:00,60.4,44.2,30.02,North,360,4.6,4.6,55,0.00,CLR,,0.00,WeatherDisplay:10.37,2013-02-05 16:16:00,
2013-02-05 11:21:00,60.8,44.5,30.01,North,360,3.5,3.5,55,0.00,CLR,,0.00,WeatherDisplay:10.37,2013-02-05 16:21:00,
2013-02-05 11:26:00,61.2,44.9,30.01,North,360,3.5,3.5,55,0.00,CLR,,0.00,WeatherDisplay:10.37,2013-02-05 16:26:00,
2013-02-05 11:31:00,62.2,45.8,30.01,North,360,0.0,0.0,55,0.00,CLR,,0.00,WeatherDisplay:10.37,2013-02-05 16:31:00,
2013-02-05 11:36:00,63.1,46.7,30.00,North,360,2.3,2.3,55,0.00,CLR,,0.00,WeatherDisplay:10.37,2013-02-05 16:36:00,
2013-02-05 11:41:00,62.9,45.0,30.00,North,360,6.9,6.9,52,0.00,CLR,,0.00,WeatherDisplay:10.37,2013-02-05 16:41:00,
2013-02-05 11:46:00,62.2,44.9,30.00,North,360,7.0,7.0,53,0.00,CLR,,0.00,WeatherDisplay:10.37,2013-02-05 16:46:00,
2013-02-05 11:51:00,62.2,45.8,29.99,WNW,302,0.0,0.4,55,0.00,CLR,,0.00,WeatherDisplay:10.37,2013-02-05 16:51:00,
2013-02-05 11:56:00,63.4,46.0,29.99,North,360,0.0,0.0,53,0.00,CLR,,0.00,WeatherDisplay:10.37,2013-02-05 16:56:00,
2013-02-05 12:01:00,64.4,45.9,29.99,North,360,0.0,0.0,51,0.00,CLR,,0.00,WeatherDisplay:10.37,2013-02-05 17:01:00,
2013-02-05 12:06:00,64.5,45.4,29.99,North,360,5.0,5.0,50,0.00,CLR,,0.00,WeatherDisplay:10.37,2013-02-05 17:06:00,
2013-02-05 12:11:00,64.6,46.1,29.99,North,360,3.5,3.5,51,0.00,CLR,,0.00,WeatherDisplay:10.37,2013-02-05 17:11:00,
2013-02-05 12:16:00,64.7,46.1,29.99,North,360,3.5,3.5,51,0.00,CLR,,0.00,WeatherDisplay:10.37,2013-02-05 17:16:00,
2013-02-05 12:21:00,64.6,46.6,29.99,North,360,0.0,0.0,52,0.00,CLR,,0.00,WeatherDisplay:10.37,2013-02-05 17:21:00,
2013-02-05 12:26:00,64.3,45.8,29.98,North,360,6.9,0.0,51,0.00,CLR,,0.00,WeatherDisplay:10.37,2013-02-05 17:26:00,
2013-02-05 12:31:00,63.8,45.8,29.98,North,360,4.6,4.6,52,0.00,CLR,,0.00,WeatherDisplay:10.37,2013-02-05 17:31:00,
2013-02-05 12:36:00,63.5,45.6,29.98,North,360,6.9,6.9,52,0.00,CLR,,0.00,WeatherDisplay:10.37,2013-02-05 17:36:00,
2013-02-05 12:41:00,63.3,46.4,29.98,North,360,4.0,4.0,54,0.00,CLR,,0.00,WeatherDisplay:10.37,2013-02-05 17:41:00,
2013-02-05 12:46:00,63.3,45.9,29.98,North,360,6.9,6.9,53,0.00,CLR,,0.00,WeatherDisplay:10.37,2013-02-05 17:46:00,
2013-02-05 12:51:00,63.6,46.1,29.97,North,360,7.0,7.0,53,0.00,CLR,,0.00,WeatherDisplay:10.37,2013-02-05 17:51:00,
2013-02-05 12:56:00,63.6,46.1,29.97,North,360,9.2,9.2,53,0.00,CLR,,0.00,WeatherDisplay:10.37,2013-02-05 17:56:00,
2013-02-05 13:01:00,63.7,46.2,29.97,North,360,10.4,10.4,53,0.00,CLR,,0.00,WeatherDisplay:10.37,2013-02-05 18:01:00,
2013-02-05 13:06:00,63.3,45.9,29.97,North,360,6.9,6.9,53,0.00,CLR,,0.00,WeatherDisplay:10.37,2013-02-05 18:06:00,
2013-02-05 13:11:00,63.6,46.1,29.97,North,360,0.0,0.0,53,0.00,CLR,,0.00,WeatherDisplay:10.37,2013-02-05 18:11:00,
2013-02-05 13:17:00,63.4,46.0,29.96,North,360,10.4,10.4,53,0.00,CLR,,0.00,WeatherDisplay:10.37,2013-02-05 18:17:00,
2013-02-05 13:22:00,63.4,46.5,29.96,North,360,3.5,0.0,54,0.00,CLR,,0.00,WeatherDisplay:10.37,2013-02-05 18:22:00,
2013-02-05 13:27:00,63.8,46.3,29.96,North,360,6.9,6.9,53,0.00,CLR,,0.00,WeatherDisplay:10.37,2013-02-05 18:27:00,
2013-02-05 13:32:00,64.2,46.2,29.96,North,360,5.8,5.8,52,0.00,CLR,,0.00,WeatherDisplay:10.37,2013-02-05 18:32:00,
2013-02-05 13:37:00,64.3,46.3,29.96,North,360,0.0,0.0,52,0.00,CLR,,0.00,WeatherDisplay:10.37,2013-02-05 18:37:00,
2013-02-05 13:42:00,64.6,46.6,29.95,North,360,1.2,1.2,52,0.00,CLR,,0.00,WeatherDisplay:10.37,2013-02-05 18:42:00,
2013-02-05 13:47:00,64.8,46.8,29.96,North,360,0.0,0.0,52,0.00,CLR,,0.00,WeatherDisplay:10.37,2013-02-05 18:47:00,
2013-02-05 13:52:00,64.6,46.6,29.95,North,360,5.0,5.0,52,0.00,CLR,,0.00,WeatherDisplay:10.37,2013-02-05 18:52:00,
2013-02-05 13:57:00,64.8,47.3,29.95,North,360,0.0,0.0,53,0.00,CLR,,0.00,WeatherDisplay:10.37,2013-02-05 18:57:00,
2013-02-05 14:02:00,65.1,47.0,29.95,North,360,0.0,0.0,52,0.00,CLR,,0.00,WeatherDisplay:10.37,2013-02-05 19:02:00,
2013-02-05 14:07:00,64.9,46.8,29.95,North,360,0.0,0.0,52,0.00,CLR,,0.00,WeatherDisplay:10.37,2013-02-05 19:07:00,
2013-02-05 14:12:00,65.0,46.9,29.95,North,360,3.5,3.5,52,0.00,CLR,,0.00,WeatherDisplay:10.37,2013-02-05 19:12:00,
2013-02-05 14:17:00,64.8,46.2,29.95,North,360,5.8,5.8,51,0.00,CLR,,0.00,WeatherDisplay:10.37,2013-02-05 19:17:00,
2013-02-05 14:22:00,64.7,46.7,29.95,North,360,0.0,0.0,52,0.00,CLR,,0.00,WeatherDisplay:10.37,2013-02-05 19:22:00,
2013-02-05 14:27:00,64.7,46.7,29.95,North,360,5.8,5.8,52,0.00,CLR,,0.00,WeatherDisplay:10.37,2013-02-05 19:27:00,
2013-02-05 14:32:00,64.8,46.8,29.94,North,360,1.2,0.0,52,0.00,CLR,,0.00,WeatherDisplay:10.37,2013-02-05 19:32:00,
2013-02-05 14:37:00,64.8,46.8,29.95,North,360,0.0,0.0,52,0.00,CLR,,0.00,WeatherDisplay:10.37,2013-02-05 19:37:00,
2013-02-05 14:42:00,64.9,46.8,29.95,North,360,0.0,0.0,52,0.00,CLR,,0.00,WeatherDisplay:10.37,2013-02-05 19:42:00,
2013-02-05 14:47:00,64.8,46.8,29.95,North,360,0.0,0.0,52,0.00,CLR,,0.00,WeatherDisplay:10.37,2013-02-05 19:47:00,
2013-02-05 14:52:00,64.5,46.5,29.95,North,360,1.2,0.0,52,0.00,CLR,,0.00,WeatherDisplay:10.37,2013-02-05 19:52:00,
2013-02-05 14:57:00,65.0,47.4,29.95,North,360,1.0,0.0,53,0.00,CLR,,0.00,WeatherDisplay:10.37,2013-02-05 19:57:00,
2013-02-05 15:02:00,65.6,48.0,29.94,North,360,0.0,0.0,53,0.00,CLR,,0.00,WeatherDisplay:10.37,2013-02-05 20:02:00,
2013-02-05 15:07:00,65.7,47.6,29.94,North,360,3.0,3.0,52,0.00,CLR,,0.00,WeatherDisplay:10.37,2013-02-05 20:07:00,
2013-02-05 15:12:00,65.2,47.6,29.95,North,360,5.8,5.8,53,0.00,CLR,,0.00,WeatherDisplay:10.37,2013-02-05 20:12:00,
2013-02-05 15:17:00,65.2,47.6,29.94,North,360,6.9,6.9,53,0.00,CLR,,0.00,WeatherDisplay:10.37,2013-02-05 20:17:00,
2013-02-05 15:22:00,65.4,47.3,29.94,SW,214,6.9,6.9,52,0.00,CLR,,0.00,WeatherDisplay:10.37,2013-02-05 20:22:00,
2013-02-05 15:27:00,65.1,47.0,29.94,North,360,4.6,4.6,52,0.00,CLR,,0.00,WeatherDisplay:10.37,2013-02-05 20:27:00,
2013-02-05 15:32:00,64.7,47.2,29.94,North,360,9.2,9.2,53,0.00,CLR,,0.00,WeatherDisplay:10.37,2013-02-05 20:32:00,
2013-02-05 15:37:00,64.6,47.1,29.94,North,360,5.8,5.8,53,0.00,CLR,,0.00,WeatherDisplay:10.37,2013-02-05 20:37:00,
2013-02-05 15:42:00,64.5,47.5,29.94,North,360,4.6,4.6,54,0.00,CLR,,0.00,WeatherDisplay:10.37,2013-02-05 20:42:00,
2013-02-05 15:47:00,64.5,47.5,29.94,North,360,4.0,4.0,54,0.00,CLR,,0.00,WeatherDisplay:10.37,2013-02-05 20:47:00,
2013-02-05 15:52:00,64.7,47.2,29.94,North,360,5.8,5.8,53,0.00,CLR,,0.00,WeatherDisplay:10.37,2013-02-05 20:52:00,
2013-02-05 15:57:00,64.9,47.4,29.94,North,360,5.0,5.0,53,0.00,CLR,,0.00,WeatherDisplay:10.37,2013-02-05 20:57:00,
2013-02-05 16:02:00,64.9,47.4,29.94,North,360,10.4,10.4,53,0.00,CLR,,0.00,WeatherDisplay:10.37,2013-02-05 21:02:00,
2013-02-05 16:07:00,65.0,47.9,29.94,North,360,4.6,4.6,54,0.00,CLR,,0.00,WeatherDisplay:10.37,2013-02-05 21:07:00,
2013-02-05 16:12:00,65.6,48.0,29.94,North,360,5.8,5.8,53,0.00,CLR,,0.00,WeatherDisplay:10.37,2013-02-05 21:12:00,
2013-02-05 16:17:00,65.8,47.7,29.94,North,360,5.8,5.8,52,0.00,CLR,,0.00,WeatherDisplay:10.37,2013-02-05 21:17:00,
2013-02-05 16:22:00,65.5,47.9,29.94,North,360,4.6,4.6,53,0.00,CLR,,0.00,WeatherDisplay:10.37,2013-02-05 21:22:00,
2013-02-05 16:27:00,65.4,47.8,29.94,North,360,6.9,6.9,53,0.00,CLR,,0.00,WeatherDisplay:10.37,2013-02-05 21:27:00,
2013-02-05 16:32:00,65.8,48.2,29.94,North,360,3.5,3.5,53,0.00,CLR,,0.00,WeatherDisplay:10.37,2013-02-05 21:32:00,
2013-02-05 16:37:00,65.9,47.8,29.94,North,360,11.5,11.5,52,0.00,CLR,,0.00,WeatherDisplay:10.37,2013-02-05 21:37:00,
2013-02-05 16:42:00,65.6,48.0,29.94,North,360,8.1,8.1,53,0.00,CLR,,0.00,WeatherDisplay:10.37,2013-02-05 21:42:00,
2013-02-05 16:47:00,65.7,48.1,29.95,North,360,3.5,3.5,53,0.00,CLR,,0.00,WeatherDisplay:10.37,2013-02-05 21:47:00,
2013-02-05 16:52:00,65.2,47.6,29.95,North,360,3.5,3.9,53,0.00,CLR,,0.00,WeatherDisplay:10.37,2013-02-05 21:52:00,
2013-02-05 16:57:00,64.5,47.5,29.94,North,360,3.5,0.0,54,0.00,CLR,,0.00,WeatherDisplay:10.37,2013-02-05 21:57:00,
2013-02-05 17:02:00,64.1,47.6,29.95,North,360,3.5,0.0,55,0.00,CLR,,0.00,WeatherDisplay:10.37,2013-02-05 22:02:00,
2013-02-05 17:07:00,63.8,47.8,29.95,North,360,0.0,0.0,56,0.00,CLR,,0.00,WeatherDisplay:10.37,2013-02-05 22:07:00,
2013-02-05 17:12:00,63.5,47.5,29.95,North,360,0.0,0.0,56,0.00,CLR,,0.00,WeatherDisplay:10.37,2013-02-05 22:12:00,
2013-02-05 17:17:00,63.3,47.3,29.95,North,360,3.5,0.0,56,0.00,CLR,,0.00,WeatherDisplay:10.37,2013-02-05 22:17:00,
2013-02-05 17:22:00,63.2,47.7,29.94,North,360,2.3,2.3,57,0.00,CLR,,0.00,WeatherDisplay:10.37,2013-02-05 22:22:00,
2013-02-05 17:27:00,63.0,47.5,29.94,SW,225,0.0,0.0,57,0.00,CLR,,0.00,WeatherDisplay:10.37,2013-02-05 22:27:00,
2013-02-05 17:32:00,62.9,47.4,29.94,North,360,0.0,0.0,57,0.00,CLR,,0.00,WeatherDisplay:10.37,2013-02-05 22:32:00,
2013-02-05 17:37:00,62.7,47.2,29.94,North,360,0.0,0.0,57,0.00,CLR,,0.00,WeatherDisplay:10.37,2013-02-05 22:37:00,
2013-02-05 17:42:00,62.5,47.5,29.94,North,360,0.0,0.0,58,0.00,CLR,,0.00,WeatherDisplay:10.37,2013-02-05 22:42:00,
2013-02-05 17:47:00,62.2,47.2,29.94,North,360,0.0,0.0,58,0.00,CLR,,0.00,WeatherDisplay:10.37,2013-02-05 22:47:00,
2013-02-05 17:52:00,61.9,47.4,29.94,North,360,0.0,0.0,59,0.00,CLR,,0.00,WeatherDisplay:10.37,2013-02-05 22:52:00,
2013-02-05 17:58:00,61.5,47.0,29.94,North,360,0.0,0.0,59,0.00,CLR,,0.00,WeatherDisplay:10.37,2013-02-05 22:58:00,
2013-02-05 18:03:00,61.2,47.2,29.94,North,360,0.0,0.0,60,0.00,CLR,,0.00,WeatherDisplay:10.37,2013-02-05 23:03:00,
2013-02-05 18:08:00,60.9,46.9,29.94,North,360,0.0,0.0,60,0.00,CLR,,0.00,WeatherDisplay:10.37,2013-02-05 23:08:00,
2013-02-05 18:13:00,60.5,47.0,29.94,North,360,0.0,0.0,61,0.00,CLR,,0.00,WeatherDisplay:10.37,2013-02-05 23:13:00,
2013-02-05 18:18:00,59.9,46.8,29.93,North,360,0.0,0.0,62,0.00,CLR,,0.00,WeatherDisplay:10.37,2013-02-05 23:18:00,
2013-02-05 18:23:00,59.0,46.8,29.93,North,360,0.0,0.0,64,0.00,CLR,,0.00,WeatherDisplay:10.37,2013-02-05 23:23:00,
2013-02-05 18:28:00,58.8,46.6,29.93,North,360,0.0,0.0,64,0.00,CLR,,0.00,WeatherDisplay:10.37,2013-02-05 23:28:00,
2013-02-05 18:33:00,58.2,46.5,29.93,North,360,0.0,0.0,65,0.00,CLR,,0.00,WeatherDisplay:10.37,2013-02-05 23:33:00,
2013-02-05 18:38:00,57.6,46.3,29.93,North,360,0.0,0.0,66,0.00,CLR,,0.00,WeatherDisplay:10.37,2013-02-05 23:38:00,
2013-02-05 18:43:00,57.1,46.2,29.94,North,360,0.0,0.0,67,0.00,CLR,,0.00,WeatherDisplay:10.37,2013-02-05 23:43:00,
2013-02-05 18:48:00,56.6,46.2,29.94,North,360,0.0,0.0,68,0.00,CLR,,0.00,WeatherDisplay:10.37,2013-02-05 23:48:00,
2013-02-05 18:53:00,56.2,46.2,29.95,North,360,0.0,0.0,69,0.00,CLR,,0.00,WeatherDisplay:10.37,2013-02-05 23:53:00,
2013-02-05 18:58:00,56.0,46.4,29.95,North,360,0.0,0.0,70,0.00,CLR,,0.00,WeatherDisplay:10.37,2013-02-05 23:58:00,
2013-02-05 19:03:00,55.7,46.1,29.95,North,360,0.0,0.0,70,0.00,CLR,,0.00,WeatherDisplay:10.37,2013-02-06 00:03:00,
2013-02-05 19:08:00,55.2,46.0,29.95,North,360,0.0,0.0,71,0.00,CLR,,0.00,WeatherDisplay:10.37,2013-02-06 00:08:00,
2013-02-05 19:13:00,54.8,45.9,29.95,North,360,0.0,0.0,72,0.00,CLR,,0.00,WeatherDisplay:10.37,2013-02-06 00:13:00,
2013-02-05 19:18:00,54.4,45.9,29.95,North,360,0.0,0.0,73,0.00,CLR,,0.00,WeatherDisplay:10.37,2013-02-06 00:18:00,
2013-02-05 19:23:00,53.9,45.4,29.95,North,360,0.0,0.0,73,0.00,CLR,,0.00,WeatherDisplay:10.37,2013-02-06 00:23:00,
2013-02-05 19:28:00,53.3,45.6,29.95,North,360,0.0,0.0,75,0.00,CLR,,0.00,WeatherDisplay:10.37,2013-02-06 00:28:00,
2013-02-05 19:33:00,52.9,45.2,29.95,North,360,0.0,0.0,75,0.00,CLR,,0.00,WeatherDisplay:10.37,2013-02-06 00:33:00,
2013-02-05 19:38:00,52.6,45.2,29.95,North,360,0.0,0.0,76,0.00,CLR,,0.00,WeatherDisplay:10.37,2013-02-06 00:38:00,
2013-02-05 19:43:00,52.4,45.1,29.95,North,360,0.0,0.0,76,0.00,CLR,,0.00,WeatherDisplay:10.37,2013-02-06 00:43:00,
2013-02-05 19:48:00,52.2,45.2,29.96,North,360,0.0,0.0,77,0.00,CLR,,0.00,WeatherDisplay:10.37,2013-02-06 00:48:00,
2013-02-05 19:53:00,52.0,45.0,29.96,North,360,0.0,0.0,77,0.00,CLR,,0.00,WeatherDisplay:10.37,2013-02-06 00:53:00,
2013-02-05 19:58:00,51.9,45.3,29.96,North,360,0.0,0.0,78,0.00,CLR,,0.00,WeatherDisplay:10.37,2013-02-06 00:58:00,
2013-02-05 20:03:00,51.9,45.3,29.97,North,360,0.0,0.0,78,0.00,CLR,,0.00,WeatherDisplay:10.37,2013-02-06 01:03:00,
2013-02-05 20:08:00,51.8,45.2,29.97,North,360,0.0,0.0,78,0.00,CLR,,0.00,WeatherDisplay:10.37,2013-02-06 01:08:00,
2013-02-05 20:13:00,51.7,45.1,29.97,North,360,0.0,0.0,78,0.00,CLR,,0.00,WeatherDisplay:10.37,2013-02-06 01:13:00,
2013-02-05 20:18:00,51.6,45.0,29.97,North,360,0.0,0.0,78,0.00,CLR,,0.00,WeatherDisplay:10.37,2013-02-06 01:18:00,
2013-02-05 20:23:00,51.4,45.1,29.97,North,360,0.0,0.0,79,0.00,CLR,,0.00,WeatherDisplay:10.37,2013-02-06 01:23:00,
2013-02-05 20:28:00,51.1,44.8,29.97,North,360,0.0,0.0,79,0.00,CLR,,0.00,WeatherDisplay:10.37,2013-02-06 01:28:00,
2013-02-05 20:33:00,50.8,44.5,29.97,North,360,0.0,0.0,79,0.00,CLR,,0.00,WeatherDisplay:10.37,2013-02-06 01:33:00,
2013-02-05 20:38:00,50.6,44.3,29.97,North,360,0.0,0.0,79,0.00,CLR,,0.00,WeatherDisplay:10.37,2013-02-06 01:38:00,
2013-02-05 20:43:00,50.4,44.5,29.98,North,360,0.0,0.0,80,0.00,CLR,,0.00,WeatherDisplay:10.37,2013-02-06 01:43:00,
2013-02-05 20:48:00,50.4,44.8,29.98,North,360,0.0,0.0,81,0.00,CLR,,0.00,WeatherDisplay:10.37,2013-02-06 01:48:00,
2013-02-05 20:53:00,50.5,44.9,29.97,North,360,0.0,0.0,81,0.00,CLR,,0.00,WeatherDisplay:10.37,2013-02-06 01:53:00,
2013-02-05 20:58:00,50.4,44.8,29.97,North,360,0.0,0.0,81,0.00,CLR,,0.00,WeatherDisplay:10.37,2013-02-06 01:58:00,
2013-02-05 21:03:00,50.5,44.9,29.97,North,360,0.0,0.0,81,0.00,CLR,,0.00,WeatherDisplay:10.37,2013-02-06 02:03:00,
2013-02-05 21:08:00,50.5,44.9,29.98,North,360,0.0,0.0,81,0.00,CLR,,0.00,WeatherDisplay:10.37,2013-02-06 02:08:00,
2013-02-05 21:13:00,50.4,44.8,29.98,North,360,0.0,0.0,81,0.00,CLR,,0.00,WeatherDisplay:10.37,2013-02-06 02:13:00,
2013-02-05 21:18:00,50.4,44.8,29.98,North,360,0.0,0.0,81,0.00,CLR,,0.00,WeatherDisplay:10.37,2013-02-06 02:18:00,
2013-02-05 21:23:00,50.4,44.8,29.98,North,360,0.0,0.0,81,0.00,CLR,,0.00,WeatherDisplay:10.37,2013-02-06 02:23:00,
2013-02-05 21:28:00,50.6,45.0,29.98,North,360,0.0,0.0,81,0.00,CLR,,0.00,WeatherDisplay:10.37,2013-02-06 02:28:00,
2013-02-05 21:33:00,50.6,45.0,29.99,North,360,0.0,0.0,81,0.00,CLR,,0.00,WeatherDisplay:10.37,2013-02-06 02:33:00,
2013-02-05 21:38:00,50.7,45.1,29.99,North,360,0.0,0.0,81,0.00,CLR,,0.00,WeatherDisplay:10.37,2013-02-06 02:38:00,
2013-02-05 21:43:00,50.8,45.2,29.99,North,360,0.0,0.0,81,0.00,CLR,,0.00,WeatherDisplay:10.37,2013-02-06 02:43:00,
2013-02-05 21:48:00,50.9,45.3,29.99,North,360,0.0,0.0,81,0.00,CLR,,0.00,WeatherDisplay:10.37,2013-02-06 02:48:00,
2013-02-05 21:53:00,51.0,45.4,29.99,North,360,0.0,0.0,81,0.00,CLR,,0.00,WeatherDisplay:10.37,2013-02-06 02:53:00,
2013-02-05 21:58:00,51.2,45.6,30.00,North,360,0.0,0.0,81,0.00,CLR,,0.00,WeatherDisplay:10.37,2013-02-06 02:58:00,
2013-02-05 22:03:00,51.3,45.7,30.00,North,360,0.0,0.0,81,0.00,CLR,,0.00,WeatherDisplay:10.37,2013-02-06 03:03:00,
2013-02-05 22:08:00,51.3,45.7,30.00,North,360,0.0,0.0,81,0.00,CLR,,0.00,WeatherDisplay:10.37,2013-02-06 03:08:00,
2013-02-05 22:13:00,51.3,45.7,30.00,North,360,0.0,0.0,81,0.00,CLR,,0.00,WeatherDisplay:10.37,2013-02-06 03:13:00,
2013-02-05 22:18:00,51.0,45.7,30.00,North,360,0.0,0.0,82,0.00,CLR,,0.00,WeatherDisplay:10.37,2013-02-06 03:18:00,
2013-02-05 22:23:00,50.8,45.8,30.00,North,360,0.0,0.0,83,0.00,CLR,,0.00,WeatherDisplay:10.37,2013-02-06 03:23:00,
2013-02-05 22:28:00,50.8,46.1,30.00,North,360,0.0,0.0,84,0.00,CLR,,0.00,WeatherDisplay:10.37,2013-02-06 03:28:00,
2013-02-05 22:33:00,50.9,46.6,30.00,North,360,0.0,0.0,85,0.00,CLR,,0.00,WeatherDisplay:10.37,2013-02-06 03:33:00,
2013-02-05 22:38:00,50.8,46.5,30.00,North,360,0.0,0.0,85,0.00,CLR,,0.00,WeatherDisplay:10.37,2013-02-06 03:38:00,
2013-02-05 22:43:00,50.9,46.9,30.00,North,360,0.0,0.0,86,0.00,CLR,,0.00,WeatherDisplay:10.37,2013-02-06 03:43:00,
2013-02-05 22:48:00,50.9,46.9,30.00,North,360,0.0,0.0,86,0.00,CLR,,0.00,WeatherDisplay:10.37,2013-02-06 03:48:00,
2013-02-05 22:53:00,50.9,47.2,29.99,North,360,0.0,0.0,87,0.00,CLR,,0.00,WeatherDisplay:10.37,2013-02-06 03:53:00,
2013-02-05 22:59:00,50.8,47.1,29.99,North,360,0.0,0.0,87,0.00,CLR,,0.00,WeatherDisplay:10.37,2013-02-06 03:59:00,
2013-02-05 23:04:00,50.8,47.1,29.99,North,360,0.0,0.0,87,0.00,CLR,,0.00,WeatherDisplay:10.37,2013-02-06 04:04:00,
2013-02-05 23:09:00,50.7,47.0,30.00,North,360,0.0,0.0,87,0.00,CLR,,0.00,WeatherDisplay:10.37,2013-02-06 04:09:00,
2013-02-05 23:14:00,50.6,46.9,30.00,North,360,0.0,0.0,87,0.00,CLR,,0.00,WeatherDisplay:10.37,2013-02-06 04:14:00,
2013-02-05 23:19:00,50.8,47.4,30.00,North,360,0.0,0.0,88,0.00,CLR,,0.00,WeatherDisplay:10.37,2013-02-06 04:19:00,
2013-02-05 23:24:00,50.9,47.2,29.99,North,360,0.0,0.0,87,0.00,CLR,,0.00,WeatherDisplay:10.37,2013-02-06 04:24:00,
2013-02-05 23:29:00,50.9,47.2,29.99,North,360,0.0,0.0,87,0.00,CLR,,0.00,WeatherDisplay:10.37,2013-02-06 04:29:00,
2013-02-05 23:34:00,50.8,47.1,29.99,North,360,0.0,0.0,87,0.00,CLR,,0.00,WeatherDisplay:10.37,2013-02-06 04:34:00,
2013-02-05 23:39:00,50.6,46.9,29.99,North,360,0.0,0.0,87,0.00,CLR,,0.00,WeatherDisplay:10.37,2013-02-06 04:39:00,
2013-02-05 23:44:00,50.3,46.6,29.99,North,360,0.0,0.0,87,0.00,CLR,,0.00,WeatherDisplay:10.37,2013-02-06 04:44:00,
2013-02-05 23:49:00,50.0,46.6,29.99,North,360,0.0,0.0,88,0.00,CLR,,0.00,WeatherDisplay:10.37,2013-02-06 04:49:00,
2013-02-05 23:54:00,49.9,46.5,29.99,North,360,0.0,0.0,88,0.00,CLR,,0.00,WeatherDisplay:10.37,2013-02-06 04:54:00,
2013-02-05 23:59:00,49.7,46.3,29.99,North,360,0.0,0.0,88,0.00,CLR,,0.00,WeatherDisplay:10.37,2013-02-06 04:59:00,